Regional Weather Roundup
Issued by NWS

Home | Current Version | Previous Version | Graphics & Text | Print | Product List | Glossary On
Versions: 1 2 3 4 5 6 7 8 9 10 11 12 13 14 15 16 17 18 19 20 21 22 23 24 25 26 27 28 29 30 31 32 33 34 35 36 37 38 39 40 41 42 43 44 45 46 47 48 49 50
000
ASUS45 KCYS 220410
RWRWY

WYOMING REGIONAL WEATHER ROUNDUP
NATIONAL WEATHER SERVICE CHEYENNE WY
1000 PM MDT THU SEP 21 2017

NOTE:  "FAIR" INDICATES FEW OR NO CLOUDS BELOW 12,000 FEET
WITH NO SIGNIFICANT WEATHER AND/OR OBSTRUCTIONS TO VISIBILITY.

WYZ001-220500-
YELLOWSTONE NATIONAL PARK

CITY           SKY/WX    TMP DP  RH WIND       PRES   REMARKS
LK YELLOWSTONE NOT AVBL
W YELLOWSTONE  NOT AVBL

$$
WYZ002>013-054>058-071-098>099-220500-
NORTHERN WYOMING

CITY           SKY/WX    TMP DP  RH WIND       PRES   REMARKS
JACKSON        CLOUDY    35  34  96 N9        29.77F WCI  28
CODY           LGT RAIN  37  34  89 NW7       29.88F WCI  32
GREYBULL       CLOUDY    46  39  76 NW22G28   29.81R
WORLAND        CLOUDY    46  40  79 N14       29.81F
SHERIDAN       CLOUDY    45  41  86 W8        29.91F
BUFFALO        FAIR      44  35  70 NW17      29.91S
GILLETTE       FAIR      48  31  51 N18       29.85R
HULETT         FAIR      50  34  53 NE10G17   29.85S
NEWCASTLE      FAIR      59  34  38 N5        29.72R

$$
WYZ014>020-022>026-101>103-220500-
CENTRAL WYOMING

CITY           SKY/WX    TMP DP  RH WIND       PRES   REMARKS
BIG PINEY      CLOUDY    47  45  93 NE7       29.73F
PINEDALE       MOCLDY    43  43 100 NW5       29.73F
DUBOIS         CLOUDY    41  37  87 SE12      29.77R
LANDER           N/A    N/A N/A N/A MISG      29.78R
RIVERTON       FAIR      43  38  82 N15       29.77S
CASPER         FAIR      45  38  76 NE13      29.85R
DOUGLAS        FAIR      54  38  54 NW14      29.80R

$$
WYZ021-027>030-104>119-220500-
SOUTHERN WYOMING

CITY           SKY/WX    TMP DP  RH WIND       PRES   REMARKS
EVANSTON       LGT RAIN  40  39  97 W16       29.79R WCI  31
KEMMERER         N/A     41  37  87 W13G18    29.75R
FORT BRIDGER   FAIR      46  41  83 W16G23    29.78R
ROCK SPRINGS   FAIR      59  24  26 S12       29.70R
DIXON          FAIR      62  21  20 SE7       29.78S
RAWLINS        FAIR      57  23  26 CALM      29.79
SARATOGA       FAIR      57  23  26 S10G20    29.81S
LARAMIE        FAIR      52  22  30 CALM      29.82F
CHEYENNE       FAIR      63  28  26 NE5       29.72F
TORRINGTON     FAIR      63  39  41 NE14      29.62S
PINE BLUFFS    FAIR      55  36  47 CALM      29.68F

$$



USA.gov is the U.S. government's official web portal to all federal, state and local government web resources and services.